Weather History for Poplar Bluff, MO

Change the Weather History Date:

Tuesday, April 9, 2013

  Actual Average Record
Temperature  
Mean Temperature 70 °F -  
Max Temperature 82 °F 66 °F 87 °F (2011)
Min Temperature 59 °F 44 °F 27 °F (2007)
Cooling Degree Days 6    
Growing Degree Days 20 (Base 50)    
Moisture  
Dew Point 61 °F    
Average Humidity 68    
Maximum Humidity 83    
Minimum Humidity 47    
Precipitation  
Precipitation 0.00 in - - ()
Sea Level Pressure  
Sea Level Pressure 29.89 in    
Wind  
Wind Speed 11 mph (South)    
Max Wind Speed 20 mph    
Max Gust Speed 29 mph    
Visibility 10 miles    
Events      
Averages and records for this station are not official NWS values.
T = Trace of Precipitation, MM = Missing Value Source: NWS Daily Summary

Daily Weather History Graph

Daily Weather History Graph

Search for Another Location

Airport:

Trip Planner

Search our weather history database for the weather conditions in past years. The results will help you decide how hot, cold, wet, or windy it might be!

Date:

Astronomy

Apr. 09, 2013 Rise Set
Actual Time 6:35 AM CDT 7:30 PM CDT
Civil Twilight 6:08 AM CDT 7:57 PM CDT
Nautical Twilight 5:37 AM CDT 8:28 PM CDT
Astronomical Twilight 5:05 AM CDT 9:01 PM CDT
Moon 5:57 AM CDT (4/9) 7:06 PM CDT (4/9)
Length of Visible Light 13h 48m
Length of Day
12h 55m
Waning Crescent, 1% of the Moon is Illuminated
Apr 9
Waning Crescent
Apr 10
New
Apr 18
First Quarter
Apr 25
Full
May 2
Last Quarter

Hourly Weather History & Observations

Time (CDT) Temp. Heat Index Dew Point Humidity Pressure Visibility Wind Dir Wind Speed Gust Speed Precip Events Conditions
12:53 AM 62.1 °F - 55.0 °F 78% 29.86 in 10.0 mi SE 5.8 mph - N/A   Clear
1:53 AM 64.0 °F - 55.0 °F 73% 29.86 in 10.0 mi SSE 9.2 mph - N/A   Mostly Cloudy
2:53 AM 62.1 °F - 54.0 °F 75% 29.85 in 10.0 mi SSE 6.9 mph - N/A   Clear
3:53 AM 62.1 °F - 55.0 °F 78% 29.85 in 10.0 mi SSE 9.2 mph - N/A   Clear
4:53 AM 59.0 °F - 54.0 °F 83% 29.87 in 10.0 mi Calm Calm - N/A   Scattered Clouds
5:53 AM 64.0 °F - 57.9 °F 80% 29.88 in 10.0 mi South 8.1 mph - N/A   Mostly Cloudy
7:53 AM 66.9 °F - 60.1 °F 79% 29.92 in 10.0 mi South 9.2 mph - N/A   Overcast
8:53 AM 70.0 °F - 62.1 °F 76% 29.93 in 10.0 mi South 16.1 mph 20.7 mph N/A   Mostly Cloudy
9:29 AM 71.6 °F - 62.6 °F 73% 29.95 in 10.0 mi South 17.3 mph 26.5 mph N/A   Mostly Cloudy
9:38 AM 71.6 °F - 62.6 °F 73% 29.95 in 10.0 mi South 15.0 mph 26.5 mph N/A   Overcast
9:53 AM 71.1 °F - 62.1 °F 73% 29.94 in 10.0 mi South 19.6 mph 27.6 mph N/A   Overcast
10:37 AM 71.6 °F - 62.6 °F 73% 29.96 in 10.0 mi South 9.2 mph - 0.00 in   Overcast
10:45 AM 71.6 °F - 62.6 °F 73% 29.96 in 10.0 mi South 13.8 mph 23.0 mph 0.00 in   Overcast
10:53 AM 73.0 °F - 63.0 °F 71% 29.96 in 10.0 mi South 12.7 mph - 0.00 in   Overcast
11:46 AM 75.2 °F - 62.6 °F 65% 29.94 in 10.0 mi South 16.1 mph 27.6 mph N/A   Mostly Cloudy
11:53 AM 75.0 °F - 63.0 °F 66% 29.93 in 10.0 mi SSW 15.0 mph 26.5 mph N/A   Mostly Cloudy
12:53 PM 77.0 °F - 63.0 °F 62% 29.91 in 10.0 mi South 10.4 mph 19.6 mph N/A   Overcast
1:53 PM 79.0 °F - 63.0 °F 58% 29.88 in 10.0 mi South 15.0 mph 28.8 mph N/A   Mostly Cloudy
2:53 PM 81.0 °F 82.2 °F 63.0 °F 54% 29.87 in 10.0 mi South 18.4 mph 25.3 mph N/A   Mostly Cloudy
3:53 PM 82.0 °F 83.1 °F 63.0 °F 52% 29.86 in 10.0 mi South 15.0 mph 20.7 mph N/A   Mostly Cloudy
4:53 PM 82.9 °F 83.3 °F 61.0 °F 47% 29.83 in 10.0 mi South 15.0 mph 25.3 mph N/A   Mostly Cloudy
5:53 PM 82.0 °F 83.0 °F 62.1 °F 51% 29.84 in 10.0 mi South 19.6 mph 25.3 mph N/A   Scattered Clouds
6:53 PM 80.1 °F 81.5 °F 63.0 °F 56% 29.85 in 10.0 mi South 10.4 mph - N/A   Overcast
7:53 PM 78.1 °F - 63.0 °F 60% 29.84 in 10.0 mi South 11.5 mph - N/A   Clear
8:53 PM 77.0 °F - 63.0 °F 62% 29.87 in 10.0 mi South 10.4 mph - N/A   Mostly Cloudy
9:53 PM 73.9 °F - 63.0 °F 68% 29.85 in 10.0 mi SSE 12.7 mph - N/A   Clear
10:53 PM 73.9 °F - 64.0 °F 71% 29.84 in 10.0 mi SSE 12.7 mph - N/A   Clear
11:53 PM 73.0 °F - 64.0 °F 73% 29.83 in 10.0 mi SSE 11.5 mph - N/A   Clear